Home > Weather > Gurgaon > Past weeks

Flag for India Weather for the Past 2 Weeks in Gurgaon, Haryana, India

Now
79 °F

Scattered clouds.


Feels Like: 78 °F
Forecast: 56 / 75 °F
Wind: 8 mph from West

Location: New Delhi Palam Airport

Current Time: Feb 12, 2016 at 3:41:14 PM

Latest Report: Feb 12, 2016 at 3:00 PM


Visibility: 1 mi

Pressure: 29.86 "Hg

Humidity: 21%

Dew point: 36 °F

Location of GurgaonLocation

Historic Weather in Gurgaon — Graph

°F

Gurgaon Temperature Yesterday

Maximum temperature yesterday: 79 °F (at 3:00 PM)
Minimum temperature yesterday: 55 °F (at 1:30 AM)
Average temperature yesterday: 66 °F

High & Low Weather Summary for the Past Weeks

 TemperatureHumidityPressure
High79 °F (Jan 30, 1:30 PM)100% (Jan 28, 5:30 PM)30.12 "Hg (Jan 28, 5:30 PM)
Low43 °F (Feb 5, 6:30 AM)17% (Feb 11, 3:00 PM)29.80 "Hg (Feb 11, 2:30 AM)
Average62 °F61%29.99 "Hg
* Reported Jan 28 1:30 PM — Feb 12 2:00 PM, Gurgaon, Weather by CustomWeather, © 2016

Note: Actual official high and low records may vary slightly from our data, if they occured in-between our weather recording intervals... More about our weather records

Advertising

Gurgaon Weather History for the Previous 24 Hours

 ConditionsComfort  
Time TempWeatherWind HumidityBarometerVisibility
2:00 PM
Fri, Feb 12
79 °FHaze.5 mph23%29.89 "Hg1 mi
1:30 PM77 °FClear.7 mph24%29.92 "Hg1 mi
1:00 PM77 °FClear.6 mph24%29.92 "Hg1 mi
12:30 PM75 °FClear.5 mph34%29.95 "Hg1 mi
12:00 PM73 °FClear.5 mph44%29.95 "Hg1 mi
11:30 AM72 °FClear.3 mph47%29.98 "Hg1 mi
11:00 AM70 °FClear.3 mph46%29.98 "Hg1 mi
10:30 AM68 °FClear.5 mph49%29.98 "Hg1 mi
10:00 AM63 °FClear.No wind64%29.98 "Hg1 mi
9:30 AM59 °FClear.No wind63%29.98 "Hg1 mi
9:00 AM54 °FFog.No wind77%29.95 "Hg1 mi
8:30 AM54 °FFog.3 mph77%29.95 "Hg1 mi
7:30 AM50 °FFog.5 mph82%29.92 "Hg1 mi
7:00 AM52 °FFog.5 mph77%29.92 "Hg1 mi
6:30 AM52 °FHaze.No wind77%29.92 "Hg1 mi
6:00 AM54 °FHaze.No wind72%29.92 "Hg1 mi
5:30 AM55 °FHaze.No wind67%29.89 "Hg1 mi
5:00 AM55 °FHaze.No wind67%29.89 "Hg1 mi
4:30 AM57 °FHaze.3 mph59%29.89 "Hg1 mi
2:30 AM57 °FHaze.3 mph59%29.92 "Hg1 mi
2:00 AM59 °FHaze.3 mph55%29.92 "Hg1 mi
1:30 AM59 °FHaze.5 mph55%29.92 "Hg1 mi
1:00 AM61 °FHaze.5 mph52%29.92 "Hg1 mi
12:30 AM61 °FHaze.5 mph52%29.92 "Hg1 mi
12:00 AM61 °FHaze.5 mph52%29.95 "Hg1 mi
11:30 PM
Thu, Feb 11
64 °FHaze.No wind46%29.95 "Hg1 mi
11:00 PM64 °FHaze.No wind46%29.95 "Hg1 mi
10:30 PM64 °FHaze.No wind46%29.95 "Hg1 mi
10:00 PM66 °FHaze.No wind43%29.95 "Hg1 mi
9:30 PM66 °FHaze.No wind46%29.95 "Hg1 mi
9:00 PM68 °FHaze.5 mph53%29.92 "Hg1 mi
8:30 PM68 °FHaze.5 mph53%29.92 "Hg1 mi
8:00 PM68 °FHaze.5 mph49%29.89 "Hg1 mi
7:30 PM70 °FHaze.5 mph31%29.89 "Hg2 mi
7:00 PM70 °FHaze.6 mph31%29.89 "Hg2 mi
6:00 PM72 °FHaze.7 mph29%29.86 "Hg2 mi
5:30 PM79 °FHaze.7 mph20%29.86 "Hg2 mi
5:00 PM75 °FHaze.5 mph22%29.83 "Hg2 mi
4:30 PM77 °FHaze.5 mph19%29.83 "Hg2 mi
4:00 PM79 °FHaze.6 mph18%29.83 "Hg2 mi
3:30 PM79 °FHaze.6 mph17%29.83 "Hg2 mi
3:00 PM79 °FHaze.6 mph17%29.86 "Hg2 mi
Weather by CustomWeather, © 2016

See weather overviewHow to use our weather pages